Location: ???
(32.3885°N, 98.2106°E)
Time: 19:16:50
(UTC+00:00)

Hubble Space Telescope - Visible Passes

Search period start: 06 October 2024 00:00
Search period end: 16 October 2024 00:00
Orbit: 504 x 508 km, 28.5° (Epoch: 06 October)

Date Brightness Start Highest point End Pass type
(mag) Time Alt. Az. Time Alt. Az. Time Alt. Az.
06 Oct 2.3 22:09:24 19° SSW 22:09:51 20° SSW 22:12:44 10° SSE visible
07 Oct 2.7 21:49:36 16° S 21:49:36 16° S 21:51:15 10° SSE visible
14 Oct 2.8 12:35:24 10° SSW 12:36:59 16° S 12:36:59 16° S visible
15 Oct 2.3 12:13:41 10° SSW 12:16:37 20° SSE 12:16:50 20° SSE visible
